Location: Clyde
(45.1830°S, 169.3170°E)
Time: 10:35:39
(UTC+12:00)

ATLAS 3B R/B - Pass Details

Date: 14 May 2021
Orbit: 1006 x 1189 km, 63.8° (Epoch: 13 June)

Event Time Altitude Azimuth Distance (km) Brightness Sun altitude
Rises 20:19:48 0° 294° (WNW) 4,084 6.6 -30.8°
Reaches altitude 10° 20:22:47 10° 286° (WNW) 3,117 5.9 -31.3°
Maximum altitude 20:29:43 39° 218° (SW) 1,680 3.9 -32.5°
Enters shadow 20:32:45 28° 173° (S) 2,022 4.1 -33.0°
